SBI5215 UNNT-UIBB

Flight info

Callsign SBI5215
Flight time 1h 42m
Altitude 35000
Route N0460F350 OGATI A308 RISPA A822 LAPAK B151 ASBOK
Aircraft B738/M-VGDW/C

Departure

Time 2026-05-04 19:15
Airport Novosibirsk Tolmachevo Airport (UNNT)

Arrival

Time 2026-05-04 20:57
Airport Bratsk Airport (UIBB)
Time Latitude Longitude Altitude Speed Heading
2026-05-04 18:42 55.00980 82.65767 372 ft 0 kts 171°
2026-05-04 19:11 55.00970 82.65770 372 ft 4 kts 171°
2026-05-04 19:11 55.00939 82.65791 372 ft 6 kts 131°
2026-05-04 19:12 55.00939 82.65903 372 ft 12 kts 81°
2026-05-04 19:12 55.00978 82.66171 372 ft 11 kts 64°
2026-05-04 19:12 55.01004 82.66296 372 ft 11 kts 70°
2026-05-04 19:13 55.01029 82.66419 372 ft 11 kts 69°
2026-05-04 19:13 55.01059 82.66548 372 ft 12 kts 67°
2026-05-04 19:13 55.01098 82.66650 372 ft 9 kts 26°
2026-05-04 19:13 55.01160 82.66649 372 ft 9 kts 351°
2026-05-04 19:14 55.01220 82.66632 372 ft 9 kts 351°
2026-05-04 19:14 55.01279 82.66616 372 ft 8 kts 351°
2026-05-04 19:14 55.01335 82.66601 373 ft 8 kts 351°
2026-05-04 19:14 55.01375 82.66547 374 ft 8 kts 279°
2026-05-04 19:15 55.01349 82.66228 371 ft 58 kts 261°
2026-05-04 19:15 55.01248 82.65120 372 ft 124 kts 261°
2026-05-04 19:15 55.01084 82.63340 454 ft 168 kts 260°
2026-05-04 19:15 55.00894 82.61290 1186 ft 168 kts 259°
2026-05-04 19:16 55.00710 82.59324 2017 ft 169 kts 259°
2026-05-04 19:16 55.00526 82.57188 2436 ft 194 kts 259°
2026-05-04 19:16 55.00344 82.54780 2903 ft 206 kts 262°
2026-05-04 19:16 55.00466 82.52183 2936 ft 227 kts 291°
2026-05-04 19:17 55.01535 82.50108 3272 ft 239 kts 330°
2026-05-04 19:17 55.02578 82.49522 3812 ft 240 kts 352°
2026-05-04 19:18 55.08084 82.50576 6367 ft 258 kts 18°
2026-05-04 19:18 55.09554 82.52520 6738 ft 281 kts 55°
2026-05-04 19:18 55.10177 82.55730 7376 ft 287 kts 89°
2026-05-04 19:18 55.09939 82.59213 8156 ft 290 kts 100°
2026-05-04 19:19 55.09920 82.62783 8875 ft 296 kts 82°
2026-05-04 19:19 55.10235 82.66352 9633 ft 299 kts 80°
2026-05-04 19:19 55.10565 82.69972 10348 ft 304 kts 80°
2026-05-04 19:19 55.10893 82.73667 10629 ft 324 kts 81°
2026-05-04 19:20 55.11238 82.77692 10815 ft 346 kts 81°
2026-05-04 19:20 55.11591 82.81953 11190 ft 360 kts 81°
2026-05-04 19:20 55.11946 82.86364 11820 ft 365 kts 81°
2026-05-04 19:20 55.12293 82.90777 12600 ft 367 kts 81°
2026-05-04 19:21 55.12637 82.95217 13349 ft 371 kts 81°
2026-05-04 19:21 55.12978 82.99666 14035 ft 375 kts 81°
2026-05-04 19:21 55.13324 83.04215 14692 ft 380 kts 81°
2026-05-04 19:21 55.13672 83.08834 15385 ft 383 kts 81°
2026-05-04 19:22 55.14019 83.13458 16058 ft 387 kts 81°
2026-05-04 19:22 55.14365 83.18105 16736 ft 391 kts 81°
2026-05-04 19:22 55.14719 83.22880 17414 ft 396 kts 81°
2026-05-04 19:22 55.15073 83.27687 18068 ft 400 kts 81°
2026-05-04 19:23 55.15427 83.32516 18670 ft 404 kts 81°
2026-05-04 19:23 55.15780 83.37367 19240 ft 408 kts 81°
2026-05-04 19:23 55.16142 83.42362 19853 ft 411 kts 80°
2026-05-04 19:23 55.16500 83.47328 20475 ft 413 kts 80°
2026-05-04 19:24 55.16856 83.52299 21019 ft 417 kts 80°
2026-05-04 19:24 55.17218 83.57379 21548 ft 421 kts 80°
2026-05-04 19:24 55.17581 83.62504 22083 ft 425 kts 80°
2026-05-04 19:24 55.17945 83.67675 22621 ft 429 kts 80°
2026-05-04 19:25 55.18307 83.72865 23145 ft 432 kts 80°
2026-05-04 19:25 55.18673 83.78137 23644 ft 436 kts 80°
2026-05-04 19:25 55.19038 83.83430 24077 ft 439 kts 80°
2026-05-04 19:25 55.19403 83.88745 24521 ft 442 kts 80°
2026-05-04 19:26 55.19765 83.94079 24965 ft 444 kts 80°
2026-05-04 19:26 55.20129 83.99461 25387 ft 447 kts 80°
2026-05-04 19:26 55.20494 84.04891 25796 ft 450 kts 80°
2026-05-04 19:26 55.20861 84.10392 26205 ft 453 kts 80°
2026-05-04 19:27 55.21223 84.15843 26598 ft 455 kts 80°
2026-05-04 19:27 55.21588 84.21392 26986 ft 458 kts 80°
2026-05-04 19:27 55.21948 84.26910 27371 ft 461 kts 80°
2026-05-04 19:27 55.22314 84.32555 27745 ft 463 kts 80°
2026-05-04 19:28 55.22677 84.38188 28110 ft 466 kts 80°
2026-05-04 19:28 55.23036 84.43807 28466 ft 468 kts 81°
2026-05-04 19:28 55.23400 84.49535 28844 ft 471 kts 80°
2026-05-04 19:28 55.23756 84.55201 29216 ft 472 kts 80°
2026-05-04 19:29 55.24113 84.60913 29564 ft 474 kts 80°
2026-05-04 19:29 55.24475 84.66741 29867 ft 477 kts 80°
2026-05-04 19:29 55.24830 84.72503 30169 ft 479 kts 80°
2026-05-04 19:29 55.25187 84.78357 30452 ft 481 kts 80°
2026-05-04 19:30 55.25540 84.84191 30822 ft 480 kts 80°
2026-05-04 19:30 55.25888 84.89998 31256 ft 477 kts 80°
2026-05-04 19:30 55.26231 84.95773 31671 ft 475 kts 81°
2026-05-04 19:30 55.26572 85.01548 32022 ft 475 kts 81°
2026-05-04 19:31 55.26910 85.07314 32406 ft 474 kts 80°
2026-05-04 19:31 55.27244 85.13066 32830 ft 471 kts 80°
2026-05-04 19:31 55.27570 85.18733 33226 ft 470 kts 80°
2026-05-04 19:31 55.27901 85.24504 33549 ft 470 kts 80°
2026-05-04 19:32 55.28223 85.30181 33874 ft 469 kts 80°
2026-05-04 19:32 55.28544 85.35882 34222 ft 468 kts 81°
2026-05-04 19:32 55.28856 85.41485 34507 ft 467 kts 81°
2026-05-04 19:32 55.29173 85.47209 34740 ft 468 kts 81°
2026-05-04 19:33 55.29485 85.52879 34958 ft 469 kts 81°
2026-05-04 19:33 55.29689 85.56634 35115 ft 469 kts 81°
2026-05-04 19:33 55.30104 85.64279 35150 ft 474 kts 80°
2026-05-04 19:34 55.30614 85.73870 35152 ft 471 kts 81°
2026-05-04 19:34 55.31206 85.85245 35151 ft 465 kts 81°
2026-05-04 19:35 55.31785 85.96502 35162 ft 465 kts 81°
2026-05-04 19:35 55.32360 86.07861 35160 ft 465 kts 81°
2026-05-04 19:36 55.32925 86.19247 35165 ft 466 kts 80°
2026-05-04 19:36 55.33477 86.30589 35154 ft 467 kts 80°
2026-05-04 19:37 55.34017 86.41932 35150 ft 467 kts 80°
2026-05-04 19:37 55.34551 86.53366 35155 ft 467 kts 81°
2026-05-04 19:38 55.35072 86.64740 35152 ft 468 kts 81°
2026-05-04 19:38 55.35587 86.76197 35163 ft 468 kts 80°
2026-05-04 19:39 55.36086 86.87586 35162 ft 469 kts 80°
2026-05-04 19:39 55.36577 86.99036 35163 ft 469 kts 80°
2026-05-04 19:40 55.37056 87.10421 35168 ft 468 kts 81°
2026-05-04 19:40 55.37523 87.21805 35167 ft 468 kts 81°
2026-05-04 19:41 55.37984 87.33279 35181 ft 469 kts 80°
2026-05-04 19:41 55.38432 87.44711 35180 ft 469 kts 80°
2026-05-04 19:42 55.38868 87.56126 35185 ft 468 kts 80°
2026-05-04 19:42 55.39295 87.67552 35194 ft 468 kts 81°
2026-05-04 19:43 55.39710 87.78980 35237 ft 468 kts 80°
2026-05-04 19:43 55.40116 87.90435 35206 ft 469 kts 80°
2026-05-04 19:44 55.40512 88.01913 35208 ft 469 kts 80°
2026-05-04 19:44 55.40892 88.13359 35194 ft 468 kts 80°
2026-05-04 19:45 55.41266 88.24784 35200 ft 468 kts 81°
2026-05-04 19:45 55.41629 88.36173 35239 ft 468 kts 80°
2026-05-04 19:46 55.41983 88.47655 35213 ft 469 kts 80°
2026-05-04 19:46 55.42323 88.59093 35205 ft 468 kts 80°
2026-05-04 19:47 55.42653 88.70523 35201 ft 468 kts 81°
2026-05-04 19:47 55.42974 88.81940 35203 ft 468 kts 81°
2026-05-04 19:48 55.43298 88.93409 35236 ft 468 kts 79°
2026-05-04 19:48 55.43808 89.04796 35209 ft 467 kts 78°
2026-05-04 19:49 55.44374 89.16194 35205 ft 466 kts 78°
2026-05-04 19:49 55.44912 89.27633 35206 ft 467 kts 78°
2026-05-04 19:50 55.45415 89.38950 35201 ft 467 kts 78°
2026-05-04 19:50 55.45907 89.50411 35205 ft 467 kts 79°
2026-05-04 19:51 55.46385 89.61803 35199 ft 467 kts 79°
2026-05-04 19:51 55.46853 89.73192 35213 ft 467 kts 79°
2026-05-04 19:52 55.47316 89.84691 35199 ft 467 kts 79°
2026-05-04 19:52 55.47763 89.96065 35198 ft 467 kts 79°
2026-05-04 19:53 55.48200 90.07449 35200 ft 468 kts 79°
2026-05-04 19:53 55.48630 90.18952 35201 ft 469 kts 79°
2026-05-04 19:54 55.49017 90.29572 35195 ft 469 kts 79°
2026-05-04 19:54 55.49534 90.41004 35197 ft 466 kts 76°
2026-05-04 19:55 55.50427 90.52275 35192 ft 464 kts 74°
2026-05-04 19:55 55.51379 90.63542 35195 ft 464 kts 74°
2026-05-04 19:56 55.52280 90.74828 35199 ft 464 kts 75°
2026-05-04 19:56 55.53143 90.86192 35192 ft 464 kts 75°
2026-05-04 19:57 55.53979 90.97489 35185 ft 464 kts 75°
2026-05-04 19:57 55.54805 91.08785 35186 ft 464 kts 75°
2026-05-04 19:58 55.55618 91.20034 35191 ft 464 kts 76°
2026-05-04 19:58 55.56425 91.31336 35194 ft 465 kts 76°
2026-05-04 19:59 55.57227 91.42711 35175 ft 465 kts 76°
2026-05-04 19:59 55.58015 91.54066 35175 ft 466 kts 76°
2026-05-04 20:00 55.58658 91.63431 35169 ft 466 kts 76°
2026-05-04 20:00 55.59563 91.76804 35179 ft 467 kts 76°
2026-05-04 20:01 55.60195 91.86268 35173 ft 468 kts 76°
2026-05-04 20:01 55.60945 91.97672 35168 ft 468 kts 76°
2026-05-04 20:02 55.61688 92.09131 35169 ft 468 kts 76°
2026-05-04 20:02 55.62423 92.20634 35164 ft 469 kts 77°
2026-05-04 20:03 55.63149 92.32144 35169 ft 469 kts 77°
2026-05-04 20:03 55.63858 92.43600 35165 ft 469 kts 77°
2026-05-04 20:04 55.64553 92.54967 35160 ft 469 kts 77°
2026-05-04 20:04 55.65247 92.66513 35159 ft 468 kts 77°
2026-05-04 20:05 55.65921 92.77934 35163 ft 468 kts 77°
2026-05-04 20:05 55.66590 92.89435 35163 ft 469 kts 78°
2026-05-04 20:06 55.67248 93.00940 35172 ft 468 kts 78°
2026-05-04 20:06 55.67893 93.12388 35175 ft 468 kts 78°
2026-05-04 20:07 55.68530 93.23898 35176 ft 468 kts 78°
2026-05-04 20:07 55.69155 93.35387 35173 ft 468 kts 78°
2026-05-04 20:08 55.69770 93.46876 35195 ft 469 kts 79°
2026-05-04 20:08 55.70374 93.58394 35177 ft 469 kts 79°
2026-05-04 20:09 55.70970 93.69968 35181 ft 469 kts 79°
2026-05-04 20:09 55.71552 93.81468 35184 ft 469 kts 79°
2026-05-04 20:10 55.72122 93.92967 35217 ft 469 kts 80°
2026-05-04 20:10 55.72684 94.04539 35198 ft 470 kts 80°
2026-05-04 20:11 55.73240 94.16166 35186 ft 470 kts 80°
2026-05-04 20:11 55.73774 94.27588 35191 ft 470 kts 80°
2026-05-04 20:12 55.74306 94.39186 35189 ft 470 kts 80°
2026-05-04 20:12 55.74826 94.50786 35224 ft 470 kts 81°
2026-05-04 20:13 55.75333 94.62334 35197 ft 471 kts 81°
2026-05-04 20:13 55.75836 94.74039 35194 ft 471 kts 81°
2026-05-04 20:14 55.76321 94.85579 35190 ft 471 kts 81°
2026-05-04 20:14 55.76796 94.97148 35192 ft 471 kts 81°
2026-05-04 20:15 55.77228 95.07926 35179 ft 466 kts 81°
2026-05-04 20:15 55.77677 95.19381 35195 ft 466 kts 81°
2026-05-04 20:16 55.78127 95.31056 35203 ft 474 kts 81°
2026-05-04 20:16 55.78563 95.42695 35191 ft 475 kts 82°
2026-05-04 20:17 55.78988 95.54445 35195 ft 475 kts 82°
2026-05-04 20:17 55.79401 95.66132 35203 ft 475 kts 82°
2026-05-04 20:18 55.79801 95.77750 35195 ft 475 kts 82°
2026-05-04 20:18 55.80197 95.89565 35185 ft 475 kts 82°
2026-05-04 20:19 55.80577 96.01238 35178 ft 475 kts 82°
2026-05-04 20:19 55.80949 96.13020 35180 ft 474 kts 82°
2026-05-04 20:20 55.81307 96.24723 35199 ft 473 kts 83°
2026-05-04 20:20 55.81653 96.36354 35188 ft 472 kts 83°
2026-05-04 20:21 55.81988 96.48030 35197 ft 472 kts 83°
2026-05-04 20:21 55.82419 96.63643 35187 ft 471 kts 83°
2026-05-04 20:22 55.82729 96.75352 35181 ft 471 kts 83°
2026-05-04 20:22 55.83028 96.87061 35193 ft 471 kts 84°
2026-05-04 20:23 55.83315 96.98704 35188 ft 471 kts 84°
2026-05-04 20:23 55.83591 97.10357 35182 ft 471 kts 84°
2026-05-04 20:24 55.83854 97.21951 35195 ft 471 kts 84°
2026-05-04 20:24 55.84108 97.33628 35181 ft 471 kts 84°
2026-05-04 20:25 55.84350 97.45244 35184 ft 472 kts 84°
2026-05-04 20:25 55.84582 97.56918 35173 ft 472 kts 84°
2026-05-04 20:26 55.84802 97.68535 35179 ft 472 kts 84°
2026-05-04 20:26 55.85014 97.80211 35174 ft 472 kts 85°
2026-05-04 20:27 55.85386 97.91891 35183 ft 468 kts 77°
2026-05-04 20:27 55.87087 98.02913 35177 ft 463 kts 69°
2026-05-04 20:28 55.88588 98.14125 35179 ft 467 kts 77°
2026-05-04 20:28 55.89630 98.25576 35152 ft 468 kts 77°
2026-05-04 20:29 55.90653 98.36975 35165 ft 468 kts 77°
2026-05-04 20:29 55.91715 98.48382 35144 ft 468 kts 77°
2026-05-04 20:30 55.92802 98.59898 35108 ft 469 kts 77°
2026-05-04 20:30 55.93350 98.65701 34533 ft 475 kts 77°
2026-05-04 20:30 55.93887 98.71436 33897 ft 473 kts 77°
2026-05-04 20:31 55.94425 98.77224 33288 ft 471 kts 77°
2026-05-04 20:31 55.94957 98.82987 32802 ft 465 kts 78°
2026-05-04 20:31 55.95474 98.88628 32311 ft 460 kts 78°
2026-05-04 20:31 55.95989 98.94281 31845 ft 455 kts 78°
2026-05-04 20:32 55.96494 98.99842 31373 ft 451 kts 78°
2026-05-04 20:32 55.96989 99.05317 30912 ft 446 kts 78°
2026-05-04 20:32 55.97481 99.10786 30467 ft 442 kts 79°
2026-05-04 20:32 55.97964 99.16171 29967 ft 437 kts 79°
2026-05-04 20:33 55.98436 99.21478 29446 ft 432 kts 79°
2026-05-04 20:33 55.98909 99.26812 28971 ft 426 kts 79°
2026-05-04 20:33 55.99367 99.32013 28505 ft 421 kts 79°
2026-05-04 20:33 55.99811 99.37082 28037 ft 416 kts 79°
2026-05-04 20:34 56.00259 99.42220 27575 ft 411 kts 79°
2026-05-04 20:34 56.00697 99.47252 27126 ft 406 kts 79°
2026-05-04 20:34 56.01122 99.52174 26675 ft 403 kts 79°
2026-05-04 20:34 56.01549 99.57130 26215 ft 399 kts 79°
2026-05-04 20:35 56.01968 99.62030 25774 ft 396 kts 79°
2026-05-04 20:35 56.02380 99.66859 25342 ft 393 kts 79°
2026-05-04 20:35 56.02786 99.71665 24929 ft 389 kts 78°
2026-05-04 20:35 56.03189 99.76438 24500 ft 387 kts 78°
2026-05-04 20:36 56.03581 99.81113 24069 ft 384 kts 78°
2026-05-04 20:36 56.03973 99.85801 23644 ft 382 kts 78°
2026-05-04 20:36 56.04368 99.90534 23146 ft 380 kts 78°
2026-05-04 20:36 56.04748 99.95122 22705 ft 376 kts 78°
2026-05-04 20:37 56.05128 99.99739 22293 ft 372 kts 78°
2026-05-04 20:37 56.05502 100.04310 21869 ft 369 kts 78°
2026-05-04 20:37 56.05870 100.08813 21459 ft 365 kts 78°
2026-05-04 20:37 56.06234 100.13287 21054 ft 363 kts 78°
2026-05-04 20:38 56.06593 100.17736 20637 ft 360 kts 79°
2026-05-04 20:38 56.06953 100.22196 20241 ft 357 kts 79°
2026-05-04 20:38 56.07301 100.26539 19846 ft 355 kts 79°
2026-05-04 20:38 56.07652 100.30942 19461 ft 353 kts 79°
2026-05-04 20:39 56.07996 100.35269 19056 ft 350 kts 79°
2026-05-04 20:39 56.08335 100.39559 18675 ft 348 kts 79°
2026-05-04 20:39 56.08668 100.43787 18269 ft 347 kts 79°
2026-05-04 20:39 56.09005 100.48094 17831 ft 344 kts 79°
2026-05-04 20:40 56.09334 100.52310 17433 ft 341 kts 79°
2026-05-04 20:40 56.09552 100.55114 17167 ft 339 kts 80°
2026-05-04 20:40 56.09981 100.60668 16655 ft 335 kts 80°
2026-05-04 20:40 56.10191 100.63398 16394 ft 334 kts 80°
2026-05-04 20:41 56.10506 100.67518 16006 ft 332 kts 80°
2026-05-04 20:41 56.10820 100.71616 15635 ft 330 kts 80°
2026-05-04 20:41 56.11129 100.75688 15248 ft 327 kts 80°
2026-05-04 20:41 56.11436 100.79742 14876 ft 325 kts 80°
2026-05-04 20:42 56.11738 100.83752 14508 ft 324 kts 81°
2026-05-04 20:42 56.12034 100.87698 14148 ft 322 kts 81°
2026-05-04 20:42 56.12337 100.91747 13762 ft 321 kts 81°
2026-05-04 20:42 56.12630 100.95693 13351 ft 320 kts 81°
2026-05-04 20:43 56.12923 100.99656 12961 ft 317 kts 81°
2026-05-04 20:43 56.13211 101.03565 12594 ft 315 kts 81°
2026-05-04 20:43 56.13498 101.07480 12210 ft 314 kts 81°
2026-05-04 20:43 56.13778 101.11321 11855 ft 312 kts 81°
2026-05-04 20:44 56.14058 101.15174 11490 ft 310 kts 81°
2026-05-04 20:44 56.14333 101.18984 11133 ft 308 kts 81°
2026-05-04 20:44 56.14608 101.22801 10780 ft 307 kts 81°
2026-05-04 20:44 56.14880 101.26596 10489 ft 303 kts 81°
2026-05-04 20:45 56.15143 101.30287 10358 ft 294 kts 81°
2026-05-04 20:45 56.15396 101.33867 10228 ft 286 kts 80°
2026-05-04 20:45 56.15643 101.37365 10097 ft 277 kts 80°
2026-05-04 20:45 56.15883 101.40767 9947 ft 271 kts 80°
2026-05-04 20:46 56.16119 101.44119 9657 ft 270 kts 80°
2026-05-04 20:46 56.16355 101.47477 9388 ft 267 kts 80°
2026-05-04 20:46 56.16580 101.50710 9129 ft 258 kts 80°
2026-05-04 20:46 56.16796 101.53821 8863 ft 253 kts 80°
2026-05-04 20:47 56.17012 101.56945 8614 ft 250 kts 80°
2026-05-04 20:47 56.17225 101.60029 8383 ft 246 kts 80°
2026-05-04 20:47 56.17434 101.63073 8138 ft 245 kts 80°
2026-05-04 20:47 56.17642 101.66100 7882 ft 244 kts 80°
2026-05-04 20:48 56.17850 101.69152 7631 ft 243 kts 80°
2026-05-04 20:48 56.18053 101.72130 7381 ft 243 kts 80°
2026-05-04 20:48 56.18257 101.75143 7133 ft 241 kts 80°
2026-05-04 20:48 56.18458 101.78116 6889 ft 240 kts 80°
2026-05-04 20:49 56.18658 101.81083 6650 ft 239 kts 80°
2026-05-04 20:49 56.18856 101.84045 6399 ft 238 kts 80°
2026-05-04 20:49 56.19051 101.86985 6187 ft 231 kts 80°
2026-05-04 20:49 56.19236 101.89795 5929 ft 218 kts 79°
2026-05-04 20:50 56.19404 101.92379 5715 ft 204 kts 78°
2026-05-04 20:50 56.19882 101.94624 5458 ft 183 kts 41°
2026-05-04 20:50 56.20843 101.95924 5484 ft 172 kts 23°
2026-05-04 20:50 56.21929 101.96862 5408 ft 173 kts 20°
2026-05-04 20:51 56.23020 101.97762 5335 ft 172 kts 20°
2026-05-04 20:51 56.24093 101.98649 5261 ft 164 kts 20°
2026-05-04 20:51 56.25080 101.99472 5178 ft 151 kts 20°
2026-05-04 20:51 56.26021 102.00257 5101 ft 147 kts 19°
2026-05-04 20:52 56.26983 102.00771 5029 ft 145 kts 359°
2026-05-04 20:52 56.27988 102.00563 4865 ft 144 kts 340°
2026-05-04 20:52 56.28863 101.99729 4717 ft 142 kts 323°
2026-05-04 20:52 56.29517 101.98422 4531 ft 140 kts 301°
2026-05-04 20:53 56.29947 101.96865 4396 ft 139 kts 300°
2026-05-04 20:53 56.30381 101.95300 4234 ft 140 kts 300°
2026-05-04 20:53 56.30845 101.93770 4073 ft 138 kts 303°
2026-05-04 20:53 56.31297 101.92250 3922 ft 137 kts 300°
2026-05-04 20:54 56.31715 101.90703 3757 ft 137 kts 299°
2026-05-04 20:54 56.32118 101.89152 3582 ft 136 kts 299°
2026-05-04 20:54 56.32512 101.87618 3423 ft 137 kts 299°
2026-05-04 20:54 56.32912 101.86054 3314 ft 135 kts 299°
2026-05-04 20:55 56.33301 101.84529 3182 ft 136 kts 299°
2026-05-04 20:55 56.33695 101.82989 2996 ft 134 kts 299°
2026-05-04 20:55 56.34084 101.81465 2810 ft 131 kts 298°
2026-05-04 20:55 56.34461 101.79990 2602 ft 130 kts 298°
2026-05-04 20:56 56.34846 101.78488 2405 ft 134 kts 296°
2026-05-04 20:56 56.35236 101.76963 2229 ft 139 kts 296°
2026-05-04 20:56 56.35647 101.75361 2015 ft 141 kts 295°
2026-05-04 20:56 56.36058 101.73734 1836 ft 141 kts 294°
2026-05-04 20:57 56.36468 101.72135 1642 ft 140 kts 295°
2026-05-04 20:57 56.36854 101.70639 1617 ft 112 kts 295°
2026-05-04 20:57 56.37098 101.69696 1615 ft 54 kts 295°
2026-05-04 20:57 56.37203 101.69289 1610 ft 19 kts 295°
2026-05-04 20:58 56.37220 101.69141 1610 ft 11 kts 243°
2026-05-04 20:58 56.37158 101.69075 1612 ft 10 kts 204°
2026-05-04 20:58 56.37092 101.69039 1612 ft 10 kts 175°
2026-05-04 20:58 56.37029 101.69082 1616 ft 10 kts 159°
2026-05-04 20:59 56.36981 101.69153 1615 ft 9 kts 116°
2026-05-04 20:59 56.36955 101.69257 1610 ft 9 kts 114°
2026-05-04 20:59 56.36927 101.69366 1613 ft 11 kts 115°
2026-05-04 20:59 56.36894 101.69495 1616 ft 11 kts 115°
2026-05-04 21:00 56.36862 101.69620 1617 ft 11 kts 115°
2026-05-04 21:00 56.36841 101.69702 1613 ft 11 kts 115°
2026-05-04 21:00 56.36810 101.69821 1610 ft 10 kts 115°
2026-05-04 21:00 56.36782 101.69933 1610 ft 8 kts 114°
2026-05-04 21:01 56.36759 101.70021 1614 ft 8 kts 114°
2026-05-04 21:01 56.36737 101.70107 1610 ft 7 kts 114°
2026-05-04 21:01 56.36715 101.70190 1610 ft 7 kts 116°
2026-05-04 21:01 56.36694 101.70270 1613 ft 6 kts 115°
2026-05-04 21:02 56.36667 101.70303 1615 ft 4 kts 180°
2026-05-04 21:02 56.36642 101.70303 1618 ft 4 kts 163°
2026-05-04 21:02 56.36624 101.70336 1615 ft 4 kts 117°
2026-05-04 21:02 56.36618 101.70361 1612 ft 1 kts 116°
2026-05-04 21:03 56.36616 101.70370 1613 ft 0 kts 115°